EW0139 Weather Reports


time (UTC)temp
F
wind
direction
speed
knots
gust
knots
rain 1hr
in
rain 24hr
in
rain mn
in
humidity
%
barometer
mb
20260901015250 71 288 3.5 5.2 0.00 0.00 0.00 36 1012.7
20260901013752 73 281 5.2 11.3 0.00 0.00 0.00 35 1012.6
20260901012314 74 281 8.7 9.6 0.00 0.00 0.00 34 1012.4
20260901010800 76 280 11.3 13.0 0.00 0.00 0.00 33 1012.2
20260901005302 76 283 12.2 18.2 0.00 0.00 0.00 32 1012.2
20260901003741 77 285 13.0 14.8 0.00 0.00 0.00 32 1012.1
20260901002249 77 279 13.9 19.1 0.00 0.00 0.00 32 1012.1
20260901000750 78 290 12.2 20.9 0.00 0.00 0.00 31 1011.9
20260831235255 78 257 20.9 20.9 0.00 0.00 0.00 32 1012.0
20260831233756 78 288 12.2 24.3 0.00 0.00 0.00 32 1011.9
20260831232257 78 274 16.5 20.9 0.00 0.00 0.00 32 1012.0
20260831230745 78 263 20.0 20.0 0.00 0.00 0.00 32 1011.9
20260831225246 78 272 15.6 24.3 0.00 0.00 0.00 31 1012.0
20260831223807 78 273 17.4 21.7 0.00 0.00 0.00 31 1012.1
20260831222250 79 277 16.5 23.5 0.00 0.00 0.00 31 1012.1
20260831220752 78 291 19.1 25.2 0.00 0.00 0.00 31 1011.9
20260831215314 78 242 14.8 24.3 0.00 0.00 0.00 32 1011.7
20260831213740 78 298 16.5 27.8 0.00 0.00 0.00 31 1011.9
20260831212243 78 281 20.9 26.9 0.00 0.00 0.00 32 1011.9
20260831210752 78 298 23.5 26.1 0.00 0.00 0.00 31 1011.8
20260831205252 78 273 12.2 20.9 0.00 0.00 0.00 32 1012.0
20260831203752 77 264 12.2 26.1 0.00 0.00 0.00 34 1012.1
20260831202257 76 271 24.3 25.2 0.00 0.00 0.00 35 1011.9
20260831200818 77 268 16.5 26.1 0.00 0.00 0.00 35 1011.1
20260831195319 76 274 15.6 27.8 0.00 0.00 0.00 36 1011.1
20260831193741 76 283 26.1 26.1 0.00 0.00 0.00 35 1011.0
20260831192242 76 267 26.1 26.9 0.00 0.00 0.00 36 1011.1
20260831190749 75 270 15.6 27.8 0.00 0.00 0.00 36 1011.1
20260831185254 76 287 18.2 26.1 0.00 0.00 0.00 36 1011.1
20260831183757 75 287 26.9 29.5 0.00 0.00 0.00 37 1010.9
20260831182300 74 275 19.1 26.9 0.00 0.00 0.00 37 1010.9
20260831180742 74 284 21.7 26.1 0.00 0.00 0.00 40 1010.9
20260831175249 74 243 20.0 26.1 0.00 0.00 0.00 40 1010.8
20260831173749 73 234 18.2 27.8 0.00 0.00 0.00 41 1010.9
20260831172249 72 281 24.3 27.8 0.00 0.00 0.00 42 1010.9
20260831170754 71 246 17.4 26.1 0.00 0.00 0.00 43 1010.9
20260831165315 71 252 22.6 25.2 0.00 0.00 0.00 43 1010.7
20260831163755 70 269 21.7 27.8 0.00 0.00 0.00 44 1010.4
20260831162241 70 264 22.6 26.1 0.00 0.00 0.00 44 1010.3
20260831160801 69 269 21.7 25.2 0.00 0.00 0.00 45 1010.1
20260831155246 68 258 16.5 25.2 0.00 0.00 0.00 46 1010.3
20260831153749 67 246 22.6 24.3 0.00 0.00 0.00 47 1010.1
20260831152249 66 230 15.6 25.2 0.00 0.00 0.00 47 1010.0
20260831150753 64 250 12.2 20.9 0.00 0.00 0.00 48 1010.0
20260831145316 62 241 12.2 20.9 0.00 0.00 0.00 49 1009.7
20260831143755 61 261 11.3 25.2 0.00 0.01 0.00 48 1009.5
20260831142239 61 246 12.2 20.9 0.00 0.01 0.00 49 1009.4
20260831140744 61 240 13.0 24.3 0.00 0.01 0.00 48 1009.2
20260831135250 59 224 12.2 19.1 0.00 0.01 0.00 50 1009.1
20260831133751 59 227 16.5 16.5 0.00 0.01 0.00 50 1008.9
20260831132254 58 227 7.8 15.6 0.00 0.01 0.00 51 1008.8
20260831130740 57 200 7.8 14.8 0.00 0.01 0.00 52 1008.9
20260831125300 57 207 11.3 17.4 0.00 0.01 0.00 52 1008.7
20260831123800 57 194 10.4 15.6 0.00 0.02 0.00 53 1008.6
20260831122246 56 223 11.3 15.6 0.00 0.02 0.00 54 1008.6
20260831120748 57 205 13.0 17.4 0.00 0.02 0.00 54 1008.3
20260831115313 58 204 7.8 15.6 0.00 0.02 0.00 52 1008.5
20260831113752 59 218 5.2 14.8 0.00 0.03 0.00 51 1008.3
20260831112258 58 207 6.1 13.0 0.00 0.03 0.00 53 1008.3
20260831110743 58 229 11.3 14.8 0.00 0.03 0.00 53 1008.3
20260831105249 58 258 7.8 13.0 0.00 0.03 0.00 53 1008.4
20260831103753 58 205 13.9 14.8 0.00 0.03 0.00 53 1008.4
20260831102252 57 224 10.4 17.4 0.00 0.03 0.00 53 1008.4
20260831100755 57 217 7.8 15.6 0.00 0.03 0.00 53 1008.5
20260831095241 56 219 8.7 13.9 0.00 0.03 0.00 54 1008.3
20260831093804 55 207 6.1 10.4 0.00 0.03 0.00 55 1008.1
20260831092244 55 213 4.3 9.6 0.00 0.03 0.00 55 1008.0
20260831090749 56 229 5.2 10.4 0.00 0.03 0.00 54 1008.0
20260831085250 55 230 5.2 11.3 0.00 0.03 0.00 55 1008.0
20260831083755 53 191 1.7 3.5 0.00 0.03 0.00 58 1008.0
20260831082257 53 194 3.5 3.5 0.00 0.03 0.00 57 1007.9
20260831080819 53 169 2.6 5.2 0.00 0.03 0.00 57 1008.0
20260831075308 50 189 1.7 1.7 0.00 0.03 0.00 63 1008.8
20260831073749 50 189 0.0 0.0 0.00 0.03 0.00 63 1008.9
20260831072249 51 189 0.0 3.5 0.00 0.03 0.00 61 1009.0
20260831070757 52 189 0.9 1.7 0.00 0.03 0.00 59 1009.3
20260831065240 53 189 0.9 2.6 0.00 0.03 0.00 59 1009.3
20260831063748 53 189 1.7 3.5 0.00 0.03 0.00 58 1009.2
20260831062253 54 189 2.6 4.3 0.00 0.03 0.00 58 1009.4
20260831060815 54 161 0.9 5.2 0.00 0.03 0.00 57 1009.4
20260831055259 54 145 4.3 6.1 0.00 0.03 0.03 58 1009.2
20260831053800 56 138 4.3 5.2 0.00 0.03 0.03 56 1009.4
20260831052241 53 156 0.9 3.5 0.00 0.03 0.03 62 1009.5
20260831050809 54 244 0.9 2.6 0.00 0.03 0.03 59 1009.6
20260831045248 54 244 0.0 0.0 0.00 0.03 0.03 59 1009.6
20260831043747 55 243 0.0 1.7 0.00 0.03 0.03 59 1009.6
20260831042312 55 244 0.9 1.7 0.00 0.03 0.03 58 1009.6
20260831040752 54 244 0.0 0.9 0.00 0.03 0.03 59 1009.5
20260831035257 55 244 0.0 1.7 0.00 0.03 0.03 56 1009.5
20260831033759 57 243 0.0 0.0 0.00 0.03 0.03 52 1009.2
20260831032301 59 244 0.0 0.0 0.00 0.03 0.03 50 1009.4
20260831030747 59 243 0.0 1.7 0.00 0.03 0.03 49 1009.4
20260831025249 60 244 0.0 0.9 0.00 0.03 0.03 48 1009.3
20260831023751 61 243 1.7 2.6 0.00 0.03 0.03 46 1009.0
20260831022258 63 244 0.0 3.5 0.00 0.03 0.03 44 1008.6
20260831020819 63 231 1.7 4.3 0.00 0.03 0.03 45 1008.8